AAL108 KBOS-EGLL

Flight info

Callsign AAL108
Flight time 5h 54m
Altitude 39000
Route LBSTA8 LBSTA DCT ALLEX N565B TUDEP/M083F400 DCT 52N050W 53N040W 54N030W 54N020W DCT MALOT DCT GISTI/N0480F410 DCT ENJEX DCT AVZAC DCT INFEC DCT JETZI DCT AMFUL DCT ORZEB/N0392F230 P2 SIRIC
Aircraft B772/H-SDE2E3FGHIJ5LORVWXY/LB1D1

Departure

Time 2026-05-06 15:30
Airport Boston Logan International Airport (KBOS)

Arrival

Time 2026-05-06 21:25
Airport London Heathrow Airport (EGLL)
Time Latitude Longitude Altitude Speed Heading
2026-05-06 14:44 42.35989 -71.01701 29 ft 0 kts 316°
2026-05-06 15:20 42.35979 -71.01689 30 ft 4 kts 316°
2026-05-06 15:20 42.35960 -71.01663 29 ft 4 kts 316°
2026-05-06 15:20 42.35941 -71.01640 28 ft 4 kts 339°
2026-05-06 15:21 42.35923 -71.01640 28 ft 2 kts 38°
2026-05-06 15:21 42.35941 -71.01624 27 ft 4 kts 29°
2026-05-06 15:21 42.35962 -71.01613 29 ft 1 kts 20°
2026-05-06 15:23 42.35976 -71.01606 30 ft 8 kts 20°
2026-05-06 15:23 42.36038 -71.01576 30 ft 10 kts 20°
2026-05-06 15:24 42.36100 -71.01546 30 ft 10 kts 20°
2026-05-06 15:24 42.36162 -71.01515 30 ft 10 kts 20°
2026-05-06 15:24 42.36252 -71.01472 30 ft 18 kts 19°
2026-05-06 15:24 42.36403 -71.01403 30 ft 27 kts 19°
2026-05-06 15:25 42.36593 -71.01296 30 ft 30 kts 23°
2026-05-06 15:25 42.36758 -71.01251 30 ft 19 kts 341°
2026-05-06 15:25 42.36875 -71.01243 30 ft 19 kts 39°
2026-05-06 15:25 42.36973 -71.01127 30 ft 19 kts 34°
2026-05-06 15:26 42.37089 -71.01045 30 ft 19 kts 25°
2026-05-06 15:26 42.37206 -71.00970 30 ft 19 kts 25°
2026-05-06 15:26 42.37325 -71.00898 30 ft 19 kts 21°
2026-05-06 15:26 42.37448 -71.00839 30 ft 19 kts 20°
2026-05-06 15:27 42.37570 -71.00778 30 ft 19 kts 20°
2026-05-06 15:27 42.37692 -71.00717 30 ft 19 kts 20°
2026-05-06 15:27 42.37813 -71.00654 30 ft 19 kts 32°
2026-05-06 15:27 42.37833 -71.00599 30 ft 0 kts 99°
2026-05-06 15:29 42.37832 -71.00598 30 ft 3 kts 99°
2026-05-06 15:29 42.37801 -71.00485 30 ft 12 kts 156°
2026-05-06 15:29 42.37682 -71.00526 30 ft 36 kts 200°
2026-05-06 15:30 42.37234 -71.00743 30 ft 100 kts 199°
2026-05-06 15:30 42.36396 -71.01143 68 ft 150 kts 198°
2026-05-06 15:30 42.35423 -71.01602 752 ft 144 kts 198°
2026-05-06 15:30 42.34450 -71.01762 1484 ft 146 kts 168°
2026-05-06 15:31 42.33557 -71.00893 1792 ft 179 kts 139°
2026-05-06 15:31 42.32729 -70.99501 1945 ft 201 kts 138°
2026-05-06 15:31 42.31841 -70.97983 2297 ft 212 kts 134°
2026-05-06 15:32 42.31381 -70.93555 2774 ft 278 kts 86°
2026-05-06 15:32 42.31781 -70.90902 3154 ft 299 kts 83°
2026-05-06 15:32 42.32250 -70.88127 3889 ft 304 kts 83°
2026-05-06 15:32 42.32702 -70.85349 4881 ft 300 kts 85°
2026-05-06 15:33 42.33130 -70.82580 5727 ft 303 kts 85°
2026-05-06 15:33 42.33554 -70.79762 6422 ft 309 kts 85°
2026-05-06 15:33 42.34224 -70.76973 6930 ft 324 kts 62°
2026-05-06 15:33 42.35818 -70.74776 7515 ft 334 kts 28°
2026-05-06 15:34 42.37962 -70.73673 8177 ft 330 kts 11°
2026-05-06 15:34 42.40170 -70.72830 8756 ft 339 kts 12°
2026-05-06 15:34 42.42447 -70.71908 9474 ft 343 kts 12°
2026-05-06 15:34 42.44767 -70.70949 10192 ft 346 kts 12°
2026-05-06 15:35 42.47145 -70.70121 10535 ft 363 kts
2026-05-06 15:35 42.49653 -70.69396 10735 ft 385 kts
2026-05-06 15:35 42.52316 -70.68648 11308 ft 395 kts
2026-05-06 15:35 42.55061 -70.67857 12100 ft 401 kts
2026-05-06 15:36 42.57790 -70.67050 12999 ft 403 kts
2026-05-06 15:36 42.60477 -70.66243 13898 ft 405 kts
2026-05-06 15:36 42.63242 -70.65409 14710 ft 408 kts
2026-05-06 15:36 42.66026 -70.64569 15469 ft 412 kts
2026-05-06 15:37 42.68842 -70.63748 16251 ft 415 kts
2026-05-06 15:37 42.71699 -70.63114 17015 ft 417 kts
2026-05-06 15:37 42.74593 -70.62538 17789 ft 422 kts
2026-05-06 15:37 42.77486 -70.61839 18418 ft 427 kts 12°
2026-05-06 15:38 42.80182 -70.60001 18882 ft 444 kts 37°
2026-05-06 15:38 42.82297 -70.56919 19546 ft 446 kts 57°
2026-05-06 15:38 42.83953 -70.53351 20135 ft 449 kts 58°
2026-05-06 15:38 42.85615 -70.49753 20791 ft 453 kts 58°
2026-05-06 15:39 42.87315 -70.46095 21506 ft 456 kts 58°
2026-05-06 15:39 42.89023 -70.42433 22195 ft 460 kts 57°
2026-05-06 15:39 42.90759 -70.38724 22880 ft 465 kts 57°
2026-05-06 15:39 42.92515 -70.34983 23469 ft 471 kts 57°
2026-05-06 15:40 42.94291 -70.31204 23995 ft 476 kts 57°
2026-05-06 15:40 42.96091 -70.27377 24563 ft 480 kts 57°
2026-05-06 15:40 42.97896 -70.23535 25126 ft 483 kts 56°
2026-05-06 15:40 42.99714 -70.19662 25662 ft 486 kts 56°
2026-05-06 15:41 43.01542 -70.15762 26257 ft 487 kts 56°
2026-05-06 15:41 43.03372 -70.11853 26793 ft 490 kts 56°
2026-05-06 15:41 43.05215 -70.07912 27258 ft 494 kts 56°
2026-05-06 15:41 43.07074 -70.03931 27719 ft 498 kts 56°
2026-05-06 15:42 43.08940 -69.99929 28168 ft 502 kts 56°
2026-05-06 15:42 43.10826 -69.95877 28625 ft 505 kts 56°
2026-05-06 15:42 43.12719 -69.91807 29078 ft 508 kts 56°
2026-05-06 15:42 43.14618 -69.87714 29502 ft 511 kts 56°
2026-05-06 15:43 43.16528 -69.83595 29991 ft 511 kts 55°
2026-05-06 15:43 43.18430 -69.79483 30487 ft 511 kts 55°
2026-05-06 15:43 43.20338 -69.75356 30769 ft 515 kts 55°
2026-05-06 15:43 43.22264 -69.71186 30999 ft 520 kts 55°
2026-05-06 15:44 43.24202 -69.66982 31280 ft 523 kts 55°
2026-05-06 15:44 43.26150 -69.62750 31596 ft 525 kts 55°
2026-05-06 15:44 43.28099 -69.58511 31905 ft 527 kts 55°
2026-05-06 15:44 43.30057 -69.54244 32196 ft 529 kts 55°
2026-05-06 15:45 43.32018 -69.49964 32461 ft 531 kts 55°
2026-05-06 15:45 43.33990 -69.45655 32730 ft 533 kts 55°
2026-05-06 15:45 43.35964 -69.41336 33019 ft 534 kts 55°
2026-05-06 15:45 43.37931 -69.37024 33376 ft 533 kts 55°
2026-05-06 15:46 43.39899 -69.32701 33753 ft 532 kts 55°
2026-05-06 15:46 43.41845 -69.28423 34406 ft 523 kts 54°
2026-05-06 15:46 43.43738 -69.24251 34835 ft 520 kts 54°
2026-05-06 15:46 43.45657 -69.20020 35083 ft 522 kts 54°
2026-05-06 15:47 43.47581 -69.15774 35283 ft 525 kts 54°
2026-05-06 15:47 43.49515 -69.11503 35472 ft 526 kts 54°
2026-05-06 15:47 43.51453 -69.07214 35732 ft 527 kts 54°
2026-05-06 15:47 43.53387 -69.02928 36020 ft 526 kts 54°
2026-05-06 15:48 43.55314 -68.98647 36310 ft 526 kts 54°
2026-05-06 15:48 43.57242 -68.94357 36566 ft 526 kts 54°
2026-05-06 15:48 43.59165 -68.90074 36849 ft 526 kts 54°
2026-05-06 15:48 43.61093 -68.85776 37066 ft 527 kts 54°
2026-05-06 15:49 43.63017 -68.81479 37315 ft 527 kts 54°
2026-05-06 15:49 43.64943 -68.77169 37570 ft 527 kts 54°
2026-05-06 15:49 43.66859 -68.72877 37811 ft 526 kts 54°
2026-05-06 15:49 43.68773 -68.68579 38177 ft 523 kts 54°
2026-05-06 15:50 43.70672 -68.64308 38471 ft 522 kts 54°
2026-05-06 15:50 43.72573 -68.60031 38671 ft 522 kts 54°
2026-05-06 15:50 43.74476 -68.55746 38809 ft 524 kts 54°
2026-05-06 15:50 43.76381 -68.51450 38860 ft 526 kts 54°
2026-05-06 15:51 43.80199 -68.42816 38931 ft 525 kts 54°
2026-05-06 15:51 43.83989 -68.34211 38934 ft 522 kts 54°
2026-05-06 15:52 43.87742 -68.25670 38951 ft 520 kts 55°
2026-05-06 15:52 43.91501 -68.17095 38949 ft 521 kts 55°
2026-05-06 15:53 43.95262 -68.08489 38950 ft 521 kts 55°
2026-05-06 15:53 43.99016 -67.99871 38952 ft 522 kts 55°
2026-05-06 15:54 44.02743 -67.91287 38952 ft 523 kts 56°
2026-05-06 15:54 44.06495 -67.82620 38961 ft 523 kts 56°
2026-05-06 15:55 44.10243 -67.73938 38959 ft 523 kts 56°
2026-05-06 15:55 44.13981 -67.65253 38986 ft 523 kts 56°
2026-05-06 15:56 44.17716 -67.56546 38973 ft 524 kts 56°
2026-05-06 15:56 44.21444 -67.47831 38956 ft 523 kts 56°
2026-05-06 15:57 44.25154 -67.39131 38964 ft 521 kts 56°
2026-05-06 15:57 44.28852 -67.30432 38988 ft 521 kts 56°
2026-05-06 15:58 44.32542 -67.21726 38974 ft 521 kts 56°
2026-05-06 15:58 44.36220 -67.13022 38981 ft 520 kts 56°
2026-05-06 15:59 44.39892 -67.04308 38981 ft 520 kts 56°
2026-05-06 15:59 44.44003 -66.96043 38976 ft 515 kts 45°
2026-05-06 16:00 44.48721 -66.88521 38981 ft 514 kts 44°
2026-05-06 16:00 44.53469 -66.80999 38982 ft 515 kts 44°
2026-05-06 16:01 44.58143 -66.73494 38992 ft 514 kts 45°
2026-05-06 16:01 44.62820 -66.65909 38977 ft 513 kts 45°
2026-05-06 16:02 44.67479 -66.58321 38978 ft 512 kts 45°
2026-05-06 16:02 44.72123 -66.50739 38990 ft 511 kts 45°
2026-05-06 16:03 44.76755 -66.43161 38981 ft 510 kts 45°
2026-05-06 16:03 44.81377 -66.35583 38983 ft 510 kts 45°
2026-05-06 16:04 44.85979 -66.28015 38983 ft 510 kts 45°
2026-05-06 16:04 44.90590 -66.20414 38993 ft 510 kts 46°
2026-05-06 16:05 44.95201 -66.12790 38992 ft 510 kts 46°
2026-05-06 16:05 44.99802 -66.05162 38994 ft 510 kts 46°
2026-05-06 16:06 45.04395 -65.97526 38996 ft 511 kts 46°
2026-05-06 16:06 45.08992 -65.89864 38996 ft 511 kts 46°
2026-05-06 16:07 45.13581 -65.82194 38994 ft 512 kts 46°
2026-05-06 16:07 45.18183 -65.74482 39005 ft 512 kts 46°
2026-05-06 16:08 45.22776 -65.66763 39002 ft 512 kts 46°
2026-05-06 16:08 45.27337 -65.59076 39002 ft 512 kts 46°
2026-05-06 16:09 45.31921 -65.51330 39006 ft 512 kts 47°
2026-05-06 16:09 45.36497 -65.43576 39001 ft 512 kts 47°
2026-05-06 16:10 45.41071 -65.35803 38995 ft 512 kts 47°
2026-05-06 16:10 45.45631 -65.28033 38995 ft 512 kts 47°
2026-05-06 16:11 45.49420 -65.21560 39006 ft 512 kts 47°
2026-05-06 16:11 45.53977 -65.13757 38992 ft 512 kts 47°
2026-05-06 16:12 45.58529 -65.05939 38985 ft 512 kts 47°
2026-05-06 16:12 45.63068 -64.98122 38990 ft 511 kts 47°
2026-05-06 16:13 45.67603 -64.90291 38984 ft 511 kts 47°
2026-05-06 16:13 45.72131 -64.82446 38982 ft 511 kts 47°
2026-05-06 16:14 45.76651 -64.74595 38980 ft 511 kts 47°
2026-05-06 16:14 45.81169 -64.66729 38984 ft 512 kts 47°
2026-05-06 16:15 45.85694 -64.58826 38966 ft 513 kts 47°
2026-05-06 16:15 45.90217 -64.50904 38959 ft 513 kts 47°
2026-05-06 16:16 45.94740 -64.42959 38954 ft 514 kts 47°
2026-05-06 16:16 45.99255 -64.35006 38955 ft 514 kts 47°
2026-05-06 16:17 46.03771 -64.27028 38959 ft 513 kts 47°
2026-05-06 16:17 46.08273 -64.19051 38964 ft 513 kts 48°
2026-05-06 16:18 46.12769 -64.11063 38961 ft 513 kts 48°
2026-05-06 16:18 46.17221 -64.03130 38956 ft 512 kts 49°
2026-05-06 16:19 46.21688 -63.95146 38949 ft 510 kts 49°
2026-05-06 16:19 46.26127 -63.87194 38970 ft 508 kts 49°
2026-05-06 16:20 46.30555 -63.79236 38962 ft 507 kts 49°
2026-05-06 16:20 46.34966 -63.71287 38966 ft 507 kts 49°
2026-05-06 16:21 46.39377 -63.63313 38968 ft 507 kts 49°
2026-05-06 16:21 46.43786 -63.55321 38965 ft 508 kts 49°
2026-05-06 16:22 46.48201 -63.47295 38965 ft 509 kts 49°
2026-05-06 16:22 46.52461 -63.39530 38969 ft 510 kts 49°
2026-05-06 16:23 46.56728 -63.31728 38981 ft 510 kts 49°
2026-05-06 16:23 46.60924 -63.24035 38966 ft 511 kts 49°
2026-05-06 16:24 46.65283 -63.16021 38959 ft 511 kts 49°
2026-05-06 16:24 46.69690 -63.07894 38943 ft 511 kts 50°
2026-05-06 16:25 46.74080 -62.99776 38962 ft 509 kts 50°
2026-05-06 16:25 46.78450 -62.91669 38957 ft 507 kts 50°
2026-05-06 16:26 46.82792 -62.83591 38960 ft 506 kts 50°
2026-05-06 16:26 46.87099 -62.75557 38975 ft 506 kts 50°
2026-05-06 16:27 46.91438 -62.67438 38973 ft 507 kts 50°
2026-05-06 16:27 46.95776 -62.59298 38972 ft 508 kts 50°
2026-05-06 16:28 47.00118 -62.51125 38966 ft 508 kts 50°
2026-05-06 16:28 47.04457 -62.42935 38977 ft 509 kts 50°
2026-05-06 16:29 47.08800 -62.34711 38974 ft 510 kts 50°
2026-05-06 16:29 47.13141 -62.26468 38973 ft 510 kts 50°
2026-05-06 16:30 47.16745 -62.19605 38980 ft 511 kts 50°
2026-05-06 16:30 47.21817 -62.09917 38980 ft 511 kts 51°
2026-05-06 16:31 47.26144 -62.01624 38981 ft 511 kts 50°
2026-05-06 16:31 47.30466 -61.93317 38982 ft 511 kts 50°
2026-05-06 16:32 47.34780 -61.84999 38995 ft 510 kts 50°
2026-05-06 16:32 47.39055 -61.76732 39010 ft 510 kts 50°
2026-05-06 16:33 47.43354 -61.68393 38993 ft 510 kts 50°
2026-05-06 16:34 47.49790 -61.55863 38996 ft 510 kts 50°
2026-05-06 16:34 47.54071 -61.47497 38991 ft 510 kts 50°
2026-05-06 16:35 47.58345 -61.39117 39010 ft 510 kts 51°
2026-05-06 16:35 47.62615 -61.30720 39009 ft 510 kts 51°
2026-05-06 16:36 47.66886 -61.22298 38991 ft 511 kts 51°
2026-05-06 16:36 47.71147 -61.13867 39008 ft 511 kts 51°
2026-05-06 16:37 47.75404 -61.05417 39011 ft 511 kts 51°
2026-05-06 16:37 47.79660 -60.96944 38985 ft 511 kts 51°
2026-05-06 16:38 47.83909 -60.88460 39003 ft 511 kts 51°
2026-05-06 16:38 47.88150 -60.79963 38995 ft 511 kts 51°
2026-05-06 16:39 47.92387 -60.71448 38998 ft 511 kts 51°
2026-05-06 16:39 47.96623 -60.62910 38996 ft 512 kts 51°
2026-05-06 16:40 48.00855 -60.54353 38997 ft 513 kts 51°
2026-05-06 16:40 48.05085 -60.45772 38999 ft 513 kts 51°
2026-05-06 16:41 48.09286 -60.37223 39017 ft 514 kts 51°
2026-05-06 16:41 48.13519 -60.28583 39005 ft 515 kts 51°
2026-05-06 16:42 48.17745 -60.19928 39005 ft 515 kts 52°
2026-05-06 16:42 48.21963 -60.11262 39009 ft 515 kts 52°
2026-05-06 16:43 48.26180 -60.02570 39024 ft 515 kts 52°
2026-05-06 16:43 48.30387 -59.93873 39019 ft 515 kts 52°
2026-05-06 16:44 48.34584 -59.85167 38996 ft 514 kts 52°
2026-05-06 16:44 48.38768 -59.76460 39009 ft 513 kts 52°
2026-05-06 16:45 48.42934 -59.67763 39020 ft 512 kts 52°
2026-05-06 16:45 48.47095 -59.59049 39026 ft 512 kts 52°
2026-05-06 16:46 48.51250 -59.50320 39028 ft 513 kts 52°
2026-05-06 16:46 48.55400 -59.41573 39023 ft 513 kts 52°
2026-05-06 16:47 48.59551 -59.32793 39020 ft 514 kts 52°
2026-05-06 16:47 48.63705 -59.23980 39023 ft 515 kts 52°
2026-05-06 16:48 48.67855 -59.15147 39027 ft 516 kts 52°
2026-05-06 16:48 48.72005 -59.06284 39041 ft 516 kts 52°
2026-05-06 16:49 48.76157 -58.97388 39033 ft 517 kts 52°
2026-05-06 16:49 48.80308 -58.88464 39026 ft 518 kts 52°
2026-05-06 16:50 48.84452 -58.79527 39022 ft 518 kts 52°
2026-05-06 16:50 48.88590 -58.70571 39011 ft 518 kts 53°
2026-05-06 16:51 48.92709 -58.61627 39026 ft 515 kts 53°
2026-05-06 16:51 48.96780 -58.52759 39027 ft 514 kts 53°
2026-05-06 16:52 49.00862 -58.43834 39031 ft 513 kts 53°
2026-05-06 16:52 49.04929 -58.34917 39030 ft 513 kts 53°
2026-05-06 16:53 49.08993 -58.25978 39027 ft 513 kts 54°
2026-05-06 16:53 49.13050 -58.17020 39037 ft 513 kts 54°
2026-05-06 16:54 49.17099 -58.08051 39044 ft 513 kts 54°
2026-05-06 16:54 49.21155 -57.99037 39033 ft 514 kts 54°
2026-05-06 16:55 49.25197 -57.90025 39036 ft 514 kts 54°
2026-05-06 16:55 49.29236 -57.80986 39031 ft 514 kts 54°
2026-05-06 16:56 49.33268 -57.71933 39039 ft 515 kts 54°
2026-05-06 16:56 49.37300 -57.62849 39032 ft 515 kts 54°
2026-05-06 16:57 49.41329 -57.53743 39029 ft 516 kts 54°
2026-05-06 16:57 49.45350 -57.44622 39020 ft 515 kts 54°
2026-05-06 16:58 49.48684 -57.37036 39026 ft 515 kts 55°
2026-05-06 16:58 49.53334 -57.26419 39026 ft 514 kts 55°
2026-05-06 16:59 49.57320 -57.17284 39020 ft 514 kts 55°
2026-05-06 16:59 49.60649 -57.09632 39018 ft 513 kts 55°
2026-05-06 17:00 49.64620 -57.00475 39029 ft 514 kts 55°
2026-05-06 17:00 49.68587 -56.91292 39016 ft 514 kts 55°
2026-05-06 17:01 49.72527 -56.82145 39003 ft 515 kts 55°
2026-05-06 17:01 49.76485 -56.72923 39006 ft 515 kts 56°
2026-05-06 17:02 49.80410 -56.63745 39007 ft 515 kts 56°
2026-05-06 17:02 49.84360 -56.54475 39001 ft 517 kts 56°
2026-05-06 17:03 49.88315 -56.45161 38997 ft 517 kts 56°
2026-05-06 17:03 49.92264 -56.35826 38992 ft 517 kts 56°
2026-05-06 17:04 49.96210 -56.26471 38995 ft 518 kts 56°
2026-05-06 17:04 50.00151 -56.17095 38977 ft 517 kts 56°
2026-05-06 17:05 50.04067 -56.07741 38974 ft 515 kts 56°
2026-05-06 17:05 50.07960 -55.98407 38983 ft 514 kts 56°
2026-05-06 17:06 50.11845 -55.89064 38986 ft 513 kts 56°
2026-05-06 17:06 50.15719 -55.79712 38986 ft 514 kts 56°
2026-05-06 17:07 50.19590 -55.70335 38987 ft 514 kts 56°
2026-05-06 17:07 50.23457 -55.60932 38981 ft 515 kts 56°
2026-05-06 17:08 50.27326 -55.51492 38988 ft 516 kts 56°
2026-05-06 17:08 50.31193 -55.42023 38983 ft 517 kts 56°
2026-05-06 17:09 50.35063 -55.32511 38979 ft 518 kts 56°
2026-05-06 17:09 50.38921 -55.22995 38993 ft 518 kts 56°
2026-05-06 17:10 50.42753 -55.13509 38983 ft 518 kts 56°
2026-05-06 17:10 50.46602 -55.03944 38982 ft 518 kts 56°
2026-05-06 17:11 50.50444 -54.94363 38986 ft 518 kts 56°
2026-05-06 17:11 50.54278 -54.84767 38984 ft 518 kts 57°
2026-05-06 17:12 50.58102 -54.75159 38984 ft 518 kts 57°
2026-05-06 17:12 50.61915 -54.65546 38987 ft 518 kts 57°
2026-05-06 17:13 50.65719 -54.55918 38994 ft 518 kts 57°
2026-05-06 17:13 50.69519 -54.46264 38996 ft 518 kts 57°
2026-05-06 17:14 50.73308 -54.36604 38992 ft 518 kts 57°
2026-05-06 17:14 50.77094 -54.26915 38989 ft 518 kts 57°
2026-05-06 17:15 50.80846 -54.17276 38993 ft 518 kts 57°
2026-05-06 17:15 50.84614 -54.07560 39004 ft 518 kts 57°
2026-05-06 17:16 50.88379 -53.97815 38995 ft 519 kts 57°
2026-05-06 17:16 50.92137 -53.88051 38996 ft 519 kts 57°
2026-05-06 17:17 50.95885 -53.78277 38998 ft 519 kts 57°
2026-05-06 17:17 50.99629 -53.68474 39005 ft 519 kts 57°
2026-05-06 17:18 51.03366 -53.58655 38987 ft 519 kts 57°
2026-05-06 17:18 51.07091 -53.48827 39001 ft 519 kts 57°
2026-05-06 17:19 51.10806 -53.38989 39006 ft 518 kts 57°
2026-05-06 17:19 51.14511 -53.29143 39007 ft 519 kts 57°
2026-05-06 17:20 51.17984 -53.19058 38999 ft 520 kts 65°
2026-05-06 17:20 51.20877 -53.08480 39016 ft 520 kts 66°
2026-05-06 17:21 51.23719 -52.97853 39007 ft 521 kts 66°
2026-05-06 17:21 51.26584 -52.87235 39012 ft 521 kts 65°
2026-05-06 17:22 51.29468 -52.76606 39005 ft 521 kts 65°
2026-05-06 17:22 51.32345 -52.65977 39010 ft 521 kts 65°
2026-05-06 17:23 51.35213 -52.55323 39022 ft 521 kts 65°
2026-05-06 17:23 51.38064 -52.44674 39010 ft 520 kts 65°
2026-05-06 17:24 51.40900 -52.34033 39015 ft 519 kts 65°
2026-05-06 17:24 51.43720 -52.23398 39012 ft 518 kts 65°
2026-05-06 17:25 51.46528 -52.12766 39014 ft 517 kts 65°
2026-05-06 17:25 51.49322 -52.02132 39026 ft 517 kts 65°
2026-05-06 17:26 51.52090 -51.91555 39034 ft 517 kts 65°
2026-05-06 17:26 51.54867 -51.80886 39018 ft 517 kts 65°
2026-05-06 17:27 51.57630 -51.70224 39030 ft 517 kts 65°
2026-05-06 17:27 51.60389 -51.59529 39027 ft 517 kts 66°
2026-05-06 17:28 51.63137 -51.48822 39022 ft 518 kts 65°
2026-05-06 17:28 51.65876 -51.38103 39027 ft 517 kts 65°
2026-05-06 17:29 51.68595 -51.27405 39029 ft 516 kts 65°
2026-05-06 17:29 51.71305 -51.16699 39020 ft 515 kts 65°
2026-05-06 17:30 51.73999 -51.05999 39024 ft 515 kts 66°
2026-05-06 17:30 51.76682 -50.95297 39038 ft 514 kts 66°
2026-05-06 17:31 51.79354 -50.84585 39027 ft 514 kts 66°
2026-05-06 17:31 51.82019 -50.73849 39024 ft 514 kts 66°
2026-05-06 17:32 51.84670 -50.63113 39029 ft 514 kts 66°
2026-05-06 17:32 51.87314 -50.52358 39034 ft 515 kts 66°
2026-05-06 17:33 51.89948 -50.41590 39025 ft 515 kts 66°
2026-05-06 17:33 51.92575 -50.30798 39023 ft 514 kts 66°
2026-05-06 17:34 51.95186 -50.20018 39026 ft 514 kts 66°
2026-05-06 17:34 51.97789 -50.09222 39048 ft 513 kts 66°
2026-05-06 17:35 52.00276 -49.98369 39041 ft 514 kts 71°
2026-05-06 17:35 52.01964 -49.87169 39045 ft 514 kts 76°
2026-05-06 17:36 52.04305 -49.70171 39040 ft 514 kts 76°
2026-05-06 17:36 52.05894 -49.58818 39034 ft 515 kts 76°
2026-05-06 17:37 52.07490 -49.47484 39043 ft 514 kts 75°
2026-05-06 17:37 52.09080 -49.36143 39030 ft 514 kts 75°
2026-05-06 17:38 52.10653 -49.24820 39040 ft 513 kts 75°
2026-05-06 17:38 52.12211 -49.13511 39045 ft 512 kts 75°
2026-05-06 17:39 52.13756 -49.02202 39050 ft 512 kts 75°
2026-05-06 17:39 52.15288 -48.90896 39050 ft 511 kts 75°
2026-05-06 17:40 52.16799 -48.79671 39041 ft 510 kts 75°
2026-05-06 17:40 52.18307 -48.68374 39048 ft 510 kts 75°
2026-05-06 17:41 52.19803 -48.57079 39047 ft 509 kts 76°
2026-05-06 17:41 52.21286 -48.45790 39053 ft 509 kts 75°
2026-05-06 17:42 52.22756 -48.34517 39061 ft 508 kts 76°
2026-05-06 17:42 52.24214 -48.23248 39047 ft 507 kts 76°
2026-05-06 17:43 52.25657 -48.12000 39061 ft 506 kts 76°
2026-05-06 17:43 52.27079 -48.00830 39053 ft 506 kts 76°
2026-05-06 17:44 52.28508 -47.89510 39063 ft 506 kts 76°
2026-05-06 17:44 52.29917 -47.78263 39066 ft 505 kts 76°
2026-05-06 17:45 52.31305 -47.67080 39065 ft 505 kts 76°
2026-05-06 17:45 52.32688 -47.55848 39071 ft 504 kts 76°
2026-05-06 17:46 52.33830 -47.46505 39070 ft 504 kts 76°
2026-05-06 17:46 52.35194 -47.35265 39072 ft 504 kts 76°
2026-05-06 17:47 52.36546 -47.24018 39089 ft 504 kts 76°
2026-05-06 17:47 52.37888 -47.12766 39080 ft 504 kts 76°
2026-05-06 17:48 52.39220 -47.01503 39083 ft 504 kts 76°
2026-05-06 17:48 52.40541 -46.90228 39086 ft 504 kts 76°
2026-05-06 17:49 52.41852 -46.78949 39083 ft 504 kts 76°
2026-05-06 17:49 52.43151 -46.67660 39114 ft 504 kts 76°
2026-05-06 17:50 52.44440 -46.56370 39098 ft 504 kts 76°
2026-05-06 17:50 52.45716 -46.45086 39099 ft 503 kts 76°
2026-05-06 17:51 52.46980 -46.33815 39099 ft 502 kts 76°
2026-05-06 17:51 52.48233 -46.22534 39106 ft 502 kts 76°
2026-05-06 17:52 52.49467 -46.11321 39121 ft 502 kts 76°
2026-05-06 17:52 52.50697 -46.00045 39113 ft 502 kts 76°
2026-05-06 17:53 52.51917 -45.88759 39112 ft 502 kts 76°
2026-05-06 17:53 52.53124 -45.77477 39117 ft 501 kts 76°
2026-05-06 17:54 52.54320 -45.66196 39118 ft 501 kts 76°
2026-05-06 17:54 52.55506 -45.54906 39126 ft 501 kts 77°
2026-05-06 17:55 52.56683 -45.43593 39126 ft 502 kts 76°
2026-05-06 17:55 52.57848 -45.32285 39120 ft 502 kts 76°
2026-05-06 17:56 52.59002 -45.20966 39127 ft 502 kts 76°
2026-05-06 17:56 52.60145 -45.09649 39127 ft 502 kts 77°
2026-05-06 17:57 52.61271 -44.98391 39134 ft 502 kts 77°
2026-05-06 17:57 52.62392 -44.87061 39136 ft 502 kts 77°
2026-05-06 17:58 52.63503 -44.75724 39139 ft 502 kts 77°
2026-05-06 17:58 52.64604 -44.64378 39139 ft 502 kts 77°
2026-05-06 17:59 52.65695 -44.53011 39140 ft 502 kts 77°
2026-05-06 17:59 52.66773 -44.41655 39142 ft 502 kts 77°
2026-05-06 18:00 52.67841 -44.30282 39155 ft 502 kts 77°
2026-05-06 18:00 52.68900 -44.18900 39148 ft 503 kts 77°
2026-05-06 18:01 52.69950 -44.07494 39150 ft 504 kts 77°
2026-05-06 18:01 52.70991 -43.96050 39152 ft 505 kts 77°
2026-05-06 18:02 52.72022 -43.84585 39151 ft 506 kts 77°
2026-05-06 18:02 52.73037 -43.73168 39166 ft 507 kts 77°
2026-05-06 18:03 52.74050 -43.61653 39161 ft 508 kts 77°
2026-05-06 18:03 52.75054 -43.50099 39154 ft 508 kts 77°
2026-05-06 18:04 52.76047 -43.38550 39156 ft 508 kts 77°
2026-05-06 18:04 52.77027 -43.26997 39157 ft 508 kts 77°
2026-05-06 18:05 52.77995 -43.15456 39182 ft 507 kts 77°
2026-05-06 18:05 52.78950 -43.03928 39167 ft 505 kts 77°
2026-05-06 18:06 52.79890 -42.92446 39155 ft 503 kts 77°
2026-05-06 18:06 52.80816 -42.81005 39158 ft 502 kts 77°
2026-05-06 18:07 52.81730 -42.69577 39164 ft 501 kts 77°
2026-05-06 18:07 52.82626 -42.58225 39186 ft 502 kts 78°
2026-05-06 18:08 52.83519 -42.46776 39171 ft 502 kts 78°
2026-05-06 18:08 52.84399 -42.35334 39175 ft 502 kts 78°
2026-05-06 18:09 52.85269 -42.23872 39170 ft 502 kts 78°
2026-05-06 18:09 52.86127 -42.12415 39164 ft 502 kts 78°
2026-05-06 18:10 52.86975 -42.00957 39167 ft 502 kts 78°
2026-05-06 18:10 52.87812 -41.89481 39172 ft 502 kts 78°
2026-05-06 18:11 52.88639 -41.78001 39166 ft 502 kts 78°
2026-05-06 18:11 52.89454 -41.66510 39166 ft 502 kts 78°
2026-05-06 18:12 52.90254 -41.55084 39168 ft 502 kts 78°
2026-05-06 18:12 52.91047 -41.43584 39176 ft 502 kts 79°
2026-05-06 18:13 52.91831 -41.32067 39166 ft 503 kts 79°
2026-05-06 18:13 52.92602 -41.20554 39163 ft 502 kts 79°
2026-05-06 18:14 52.93361 -41.09054 39163 ft 502 kts 79°
2026-05-06 18:14 52.94109 -40.97552 39163 ft 502 kts 79°
2026-05-06 18:15 52.94846 -40.86051 39163 ft 501 kts 79°
2026-05-06 18:15 52.95572 -40.74550 39174 ft 502 kts 80°
2026-05-06 18:16 52.96286 -40.63046 39168 ft 501 kts 80°
2026-05-06 18:16 52.96988 -40.51556 39171 ft 500 kts 80°
2026-05-06 18:17 52.97678 -40.40076 39163 ft 500 kts 80°
2026-05-06 18:17 52.98357 -40.28594 39163 ft 500 kts 80°
2026-05-06 18:18 52.99025 -40.17107 39177 ft 500 kts 80°
2026-05-06 18:18 52.99684 -40.05623 39158 ft 500 kts 81°
2026-05-06 18:19 53.00719 -39.94297 39156 ft 493 kts 72°
2026-05-06 18:19 53.02338 -39.83236 39158 ft 493 kts 72°
2026-05-06 18:20 53.03974 -39.72166 39158 ft 493 kts 72°
2026-05-06 18:20 53.05571 -39.61079 39174 ft 494 kts 72°
2026-05-06 18:21 53.07129 -39.50034 39158 ft 494 kts 73°
2026-05-06 18:21 53.08681 -39.38907 39157 ft 494 kts 73°
2026-05-06 18:22 53.10225 -39.27765 39155 ft 494 kts 73°
2026-05-06 18:22 53.11759 -39.16617 39149 ft 494 kts 73°
2026-05-06 18:23 53.13284 -39.05461 39149 ft 494 kts 73°
2026-05-06 18:23 53.14798 -38.94302 39147 ft 494 kts 73°
2026-05-06 18:24 53.16302 -38.83131 39149 ft 494 kts 73°
2026-05-06 18:24 53.17794 -38.71959 39145 ft 494 kts 73°
2026-05-06 18:25 53.19278 -38.60771 39144 ft 494 kts 73°
2026-05-06 18:25 53.20752 -38.49564 39147 ft 494 kts 74°
2026-05-06 18:26 53.22213 -38.38366 39143 ft 494 kts 74°
2026-05-06 18:26 53.23662 -38.27177 39141 ft 493 kts 74°
2026-05-06 18:27 53.25089 -38.16063 39139 ft 493 kts 74°
2026-05-06 18:27 53.26517 -38.04864 39162 ft 493 kts 74°
2026-05-06 18:28 53.27936 -37.93633 39138 ft 494 kts 74°
2026-05-06 18:28 53.29344 -37.82404 39127 ft 493 kts 75°
2026-05-06 18:29 53.30741 -37.71172 39130 ft 493 kts 75°
2026-05-06 18:29 53.32125 -37.59953 39134 ft 493 kts 75°
2026-05-06 18:30 53.33500 -37.48716 39150 ft 493 kts 75°
2026-05-06 18:30 53.34862 -37.37490 39127 ft 493 kts 75°
2026-05-06 18:31 53.36214 -37.26247 39128 ft 492 kts 75°
2026-05-06 18:31 53.37546 -37.15081 39128 ft 492 kts 75°
2026-05-06 18:32 53.38875 -37.03842 39126 ft 492 kts 75°
2026-05-06 18:32 53.40195 -36.92595 39135 ft 492 kts 76°
2026-05-06 18:33 53.41502 -36.81346 39121 ft 492 kts 76°
2026-05-06 18:33 53.42801 -36.70075 39110 ft 492 kts 76°
2026-05-06 18:34 53.44087 -36.58817 39110 ft 492 kts 76°
2026-05-06 18:34 53.45363 -36.47549 39108 ft 492 kts 76°
2026-05-06 18:35 53.46629 -36.36273 39113 ft 492 kts 76°
2026-05-06 18:35 53.47883 -36.24990 39104 ft 492 kts 76°
2026-05-06 18:36 53.48918 -36.15610 39098 ft 492 kts 76°
2026-05-06 18:36 53.50152 -36.04323 39097 ft 491 kts 77°
2026-05-06 18:37 53.51376 -35.93028 39092 ft 491 kts 77°
2026-05-06 18:37 53.52590 -35.81720 39107 ft 491 kts 77°
2026-05-06 18:38 53.53793 -35.70411 39098 ft 491 kts 77°
2026-05-06 18:38 53.54985 -35.59094 39084 ft 492 kts 77°
2026-05-06 18:39 53.56166 -35.47773 39082 ft 492 kts 77°
2026-05-06 18:40 53.57919 -35.30771 39087 ft 492 kts 77°
2026-05-06 18:40 53.59074 -35.19428 39074 ft 492 kts 78°
2026-05-06 18:41 53.60219 -35.08070 39074 ft 492 kts 78°
2026-05-06 18:41 53.61353 -34.96711 39072 ft 492 kts 78°
2026-05-06 18:42 53.62466 -34.85456 39072 ft 492 kts 78°
2026-05-06 18:42 53.63576 -34.74109 39079 ft 492 kts 78°
2026-05-06 18:43 53.64678 -34.62730 39063 ft 492 kts 78°
2026-05-06 18:43 53.65770 -34.51339 39063 ft 492 kts 78°
2026-05-06 18:44 53.66850 -34.39949 39058 ft 492 kts 78°
2026-05-06 18:44 53.67920 -34.28545 39059 ft 492 kts 78°
2026-05-06 18:45 53.68978 -34.17156 39069 ft 492 kts 79°
2026-05-06 18:45 53.70027 -34.05740 39058 ft 492 kts 79°
2026-05-06 18:46 53.71065 -33.94317 39054 ft 492 kts 79°
2026-05-06 18:46 53.72091 -33.82898 39054 ft 492 kts 79°
2026-05-06 18:47 53.73102 -33.71515 39052 ft 492 kts 79°
2026-05-06 18:47 53.74107 -33.60085 39047 ft 492 kts 79°
2026-05-06 18:48 53.75101 -33.48646 39041 ft 492 kts 79°
2026-05-06 18:48 53.76078 -33.37276 39041 ft 492 kts 79°
2026-05-06 18:49 53.77050 -33.25827 39045 ft 492 kts 79°
2026-05-06 18:49 53.78010 -33.14384 39044 ft 492 kts 79°
2026-05-06 18:50 53.78958 -33.02958 39039 ft 493 kts 80°
2026-05-06 18:50 53.79899 -32.91480 39035 ft 493 kts 80°
2026-05-06 18:51 53.80830 -32.79975 39036 ft 494 kts 80°
2026-05-06 18:51 53.81748 -32.68490 39032 ft 494 kts 80°
2026-05-06 18:52 53.82654 -32.57018 39025 ft 494 kts 80°
2026-05-06 18:52 53.83553 -32.45490 39028 ft 494 kts 81°
2026-05-06 18:53 53.84441 -32.33955 39019 ft 494 kts 81°
2026-05-06 18:53 53.85318 -32.22422 39023 ft 494 kts 81°
2026-05-06 18:54 53.86184 -32.10876 39021 ft 494 kts 81°
2026-05-06 18:54 53.87039 -31.99317 39015 ft 494 kts 81°
2026-05-06 18:55 53.87884 -31.87733 39011 ft 496 kts 81°
2026-05-06 18:55 53.88723 -31.76113 39020 ft 497 kts 81°
2026-05-06 18:56 53.89542 -31.64583 39010 ft 498 kts 81°
2026-05-06 18:56 53.90360 -31.52888 39008 ft 497 kts 81°
2026-05-06 18:57 53.91158 -31.41331 39015 ft 496 kts 82°
2026-05-06 18:57 53.91945 -31.29795 39015 ft 498 kts 82°
2026-05-06 18:58 53.92726 -31.18139 39013 ft 499 kts 82°
2026-05-06 18:58 53.93497 -31.06428 39022 ft 500 kts 81°
2026-05-06 18:59 53.94262 -30.94696 39008 ft 500 kts 82°
2026-05-06 18:59 53.95015 -30.82948 39017 ft 500 kts 82°
2026-05-06 19:00 53.95757 -30.71214 39016 ft 500 kts 82°
2026-05-06 19:00 53.96487 -30.59469 39017 ft 500 kts 82°
2026-05-06 19:01 53.97202 -30.47755 39012 ft 500 kts 82°
2026-05-06 19:01 53.97908 -30.35989 39017 ft 501 kts 83°
2026-05-06 19:02 53.98605 -30.24218 39024 ft 501 kts 82°
2026-05-06 19:02 53.99291 -30.12413 39020 ft 502 kts 82°
2026-05-06 19:03 53.99961 -30.00711 39023 ft 503 kts 82°
2026-05-06 19:03 54.00522 -29.88851 39023 ft 504 kts 84°
2026-05-06 19:04 54.00968 -29.76992 39026 ft 502 kts 85°
2026-05-06 19:04 54.01404 -29.65146 39033 ft 502 kts 84°
2026-05-06 19:05 54.01846 -29.53330 39032 ft 501 kts 84°
2026-05-06 19:05 54.02284 -29.41550 39032 ft 500 kts 85°
2026-05-06 19:06 54.02713 -29.29740 39037 ft 500 kts 85°
2026-05-06 19:06 54.03131 -29.17915 39033 ft 501 kts 85°
2026-05-06 19:07 54.03537 -29.06069 39047 ft 502 kts 86°
2026-05-06 19:07 54.03931 -28.94227 39040 ft 503 kts 85°
2026-05-06 19:08 54.04314 -28.82355 39036 ft 502 kts 86°
2026-05-06 19:08 54.04684 -28.70507 39040 ft 501 kts 86°
2026-05-06 19:09 54.05042 -28.58676 39039 ft 501 kts 86°
2026-05-06 19:09 54.05389 -28.46849 39042 ft 500 kts 86°
2026-05-06 19:10 54.05723 -28.35028 39037 ft 500 kts 86°
2026-05-06 19:10 54.06047 -28.23199 39036 ft 500 kts 86°
2026-05-06 19:11 54.06358 -28.11378 39040 ft 500 kts 86°
2026-05-06 19:11 54.06656 -27.99631 39040 ft 500 kts 86°
2026-05-06 19:12 54.06945 -27.87790 39033 ft 501 kts 86°
2026-05-06 19:12 54.07221 -27.75969 39041 ft 501 kts 86°
2026-05-06 19:13 54.07487 -27.64120 39043 ft 502 kts 87°
2026-05-06 19:13 54.07741 -27.52245 39039 ft 502 kts 87°
2026-05-06 19:14 54.07984 -27.40365 39043 ft 501 kts 87°
2026-05-06 19:14 54.08215 -27.28505 39039 ft 501 kts 87°
2026-05-06 19:15 54.08433 -27.16661 39034 ft 500 kts 88°
2026-05-06 19:15 54.08639 -27.04850 39037 ft 499 kts 88°
2026-05-06 19:16 54.08834 -26.93041 39032 ft 499 kts 88°
2026-05-06 19:16 54.09018 -26.81231 39042 ft 499 kts 88°
2026-05-06 19:17 54.09190 -26.69418 39031 ft 499 kts 88°
2026-05-06 19:17 54.09350 -26.57610 39029 ft 499 kts 88°
2026-05-06 19:18 54.09498 -26.45791 39026 ft 499 kts 88°
2026-05-06 19:18 54.09635 -26.33978 39030 ft 499 kts 88°
2026-05-06 19:19 54.09760 -26.22245 39038 ft 499 kts 89°
2026-05-06 19:19 54.09875 -26.10340 39032 ft 499 kts 89°
2026-05-06 19:20 54.09976 -25.98594 39032 ft 499 kts 89°
2026-05-06 19:20 54.10067 -25.86768 39022 ft 499 kts 89°
2026-05-06 19:21 54.10146 -25.74941 39027 ft 499 kts 89°
2026-05-06 19:21 54.10214 -25.63117 39028 ft 499 kts 89°
2026-05-06 19:22 54.10270 -25.51290 39068 ft 501 kts 89°
2026-05-06 19:22 54.10294 -25.45349 39249 ft 501 kts 89°
2026-05-06 19:22 54.10315 -25.39421 39488 ft 500 kts 89°
2026-05-06 19:22 54.10333 -25.33504 39732 ft 499 kts 89°
2026-05-06 19:23 54.10347 -25.27596 39953 ft 498 kts 89°
2026-05-06 19:23 54.10359 -25.21699 40131 ft 498 kts 89°
2026-05-06 19:23 54.10369 -25.15792 40305 ft 499 kts 89°
2026-05-06 19:23 54.10375 -25.09887 40476 ft 499 kts 89°
2026-05-06 19:24 54.10378 -25.03977 40663 ft 499 kts 89°
2026-05-06 19:24 54.10379 -24.98070 40844 ft 499 kts 89°
2026-05-06 19:24 54.10377 -24.92159 40935 ft 499 kts 89°
2026-05-06 19:25 54.10363 -24.80302 41016 ft 501 kts 89°
2026-05-06 19:25 54.10338 -24.68420 41016 ft 501 kts 89°
2026-05-06 19:26 54.10308 -24.58562 41016 ft 500 kts 90°
2026-05-06 19:26 54.10261 -24.46715 41024 ft 500 kts 90°
2026-05-06 19:27 54.10203 -24.34881 41014 ft 499 kts 90°
2026-05-06 19:27 54.10134 -24.23040 41006 ft 499 kts 90°
2026-05-06 19:28 54.10052 -24.11208 41013 ft 499 kts 90°
2026-05-06 19:28 54.09959 -23.99395 41013 ft 498 kts 90°
2026-05-06 19:29 54.09855 -23.87587 41015 ft 498 kts 90°
2026-05-06 19:29 54.09739 -23.75778 41009 ft 499 kts 90°
2026-05-06 19:30 54.09612 -23.63963 41006 ft 499 kts 90°
2026-05-06 19:30 54.09474 -23.52229 41009 ft 499 kts 91°
2026-05-06 19:31 54.09323 -23.40414 41006 ft 499 kts 91°
2026-05-06 19:31 54.09076 -23.22680 41002 ft 499 kts 91°
2026-05-06 19:32 54.08896 -23.10854 41004 ft 500 kts 91°
2026-05-06 19:32 54.08704 -22.99019 41005 ft 500 kts 91°
2026-05-06 19:33 54.08501 -22.87190 40994 ft 500 kts 91°
2026-05-06 19:33 54.08287 -22.75367 40998 ft 500 kts 91°
2026-05-06 19:34 54.08060 -22.63538 40995 ft 500 kts 92°
2026-05-06 19:34 54.07822 -22.51699 40999 ft 500 kts 92°
2026-05-06 19:35 54.07573 -22.39860 40988 ft 500 kts 92°
2026-05-06 19:35 54.07311 -22.28030 40991 ft 500 kts 92°
2026-05-06 19:36 54.07040 -22.16268 40990 ft 500 kts 92°
2026-05-06 19:36 54.06756 -22.04446 40990 ft 500 kts 92°
2026-05-06 19:37 54.06460 -21.92618 40986 ft 500 kts 92°
2026-05-06 19:37 54.06152 -21.80782 40981 ft 500 kts 92°
2026-05-06 19:38 54.05833 -21.68969 40981 ft 500 kts 92°
2026-05-06 19:38 54.05503 -21.57153 40989 ft 500 kts 92°
2026-05-06 19:39 54.05161 -21.45336 40979 ft 500 kts 93°
2026-05-06 19:39 54.04807 -21.33528 40976 ft 500 kts 93°
2026-05-06 19:40 54.04441 -21.21717 40976 ft 500 kts 93°
2026-05-06 19:40 54.04064 -21.09901 40973 ft 500 kts 93°
2026-05-06 19:41 54.03676 -20.98089 40983 ft 500 kts 93°
2026-05-06 19:41 54.03279 -20.86367 40969 ft 500 kts 93°
2026-05-06 19:42 54.02867 -20.74557 40968 ft 500 kts 94°
2026-05-06 19:42 54.02443 -20.62737 40968 ft 500 kts 94°
2026-05-06 19:43 54.02008 -20.50931 40966 ft 500 kts 94°
2026-05-06 19:43 54.01562 -20.39134 40963 ft 500 kts 94°
2026-05-06 19:44 54.01105 -20.27345 40958 ft 500 kts 94°
2026-05-06 19:44 54.00637 -20.15557 40959 ft 500 kts 94°
2026-05-06 19:45 54.00132 -20.03775 40958 ft 499 kts 97°
2026-05-06 19:45 53.98755 -19.92245 40957 ft 498 kts 107°
2026-05-06 19:46 53.96722 -19.81005 40959 ft 498 kts 108°
2026-05-06 19:46 53.94685 -19.69834 40955 ft 498 kts 108°
2026-05-06 19:47 53.92658 -19.58580 40954 ft 499 kts 108°
2026-05-06 19:47 53.90638 -19.47324 40950 ft 498 kts 108°
2026-05-06 19:48 53.88613 -19.36087 40954 ft 498 kts 108°
2026-05-06 19:48 53.86576 -19.24862 40953 ft 498 kts 108°
2026-05-06 19:49 53.84529 -19.13658 40950 ft 498 kts 108°
2026-05-06 19:49 53.82471 -19.02464 40950 ft 498 kts 108°
2026-05-06 19:50 53.80400 -18.91270 40951 ft 498 kts 108°
2026-05-06 19:50 53.78320 -18.80090 40950 ft 498 kts 108°
2026-05-06 19:51 53.76231 -18.68933 40952 ft 498 kts 108°
2026-05-06 19:51 53.74133 -18.57790 40948 ft 497 kts 109°
2026-05-06 19:52 53.72025 -18.46660 40954 ft 498 kts 109°
2026-05-06 19:52 53.69903 -18.35527 40948 ft 498 kts 109°
2026-05-06 19:53 53.67786 -18.24483 40951 ft 498 kts 109°
2026-05-06 19:53 53.65647 -18.13385 40951 ft 498 kts 109°
2026-05-06 19:54 53.63493 -18.02274 40934 ft 498 kts 109°
2026-05-06 19:54 53.61334 -17.91205 40947 ft 497 kts 109°
2026-05-06 19:55 53.59166 -17.80152 40947 ft 497 kts 109°
2026-05-06 19:55 53.56989 -17.69118 40948 ft 497 kts 109°
2026-05-06 19:56 53.54803 -17.58100 40948 ft 497 kts 109°
2026-05-06 19:56 53.52633 -17.47223 40948 ft 497 kts 110°
2026-05-06 19:57 53.50428 -17.36228 40948 ft 497 kts 110°
2026-05-06 19:57 53.48211 -17.25245 40950 ft 496 kts 110°
2026-05-06 19:58 53.45985 -17.14272 40948 ft 496 kts 110°
2026-05-06 19:58 53.43755 -17.03339 40950 ft 495 kts 110°
2026-05-06 19:59 53.41513 -16.92411 40955 ft 495 kts 110°
2026-05-06 19:59 53.39265 -16.81512 40952 ft 495 kts 110°
2026-05-06 20:00 53.37019 -16.70682 40955 ft 495 kts 110°
2026-05-06 20:00 53.34749 -16.59795 40951 ft 495 kts 110°
2026-05-06 20:01 53.32472 -16.48933 40953 ft 494 kts 110°
2026-05-06 20:01 53.30189 -16.38102 40950 ft 494 kts 110°
2026-05-06 20:02 53.27895 -16.27278 40950 ft 493 kts 110°
2026-05-06 20:02 53.25597 -16.16490 40950 ft 493 kts 110°
2026-05-06 20:03 53.23289 -16.05716 40954 ft 493 kts 110°
2026-05-06 20:03 53.20972 -15.94952 40956 ft 493 kts 110°
2026-05-06 20:04 53.18645 -15.84202 40945 ft 493 kts 110°
2026-05-06 20:04 53.16309 -15.73468 40956 ft 493 kts 110°
2026-05-06 20:05 53.13964 -15.62742 40959 ft 492 kts 110°
2026-05-06 20:05 53.11611 -15.52039 40959 ft 492 kts 111°
2026-05-06 20:06 53.09248 -15.41346 40960 ft 492 kts 110°
2026-05-06 20:06 53.06900 -15.30770 40959 ft 492 kts 111°
2026-05-06 20:07 53.04521 -15.20111 40961 ft 492 kts 111°
2026-05-06 20:07 53.02135 -15.09470 40959 ft 491 kts 110°
2026-05-06 20:08 53.00396 -14.98530 40966 ft 491 kts 98°
2026-05-06 20:08 52.99921 -14.87284 40972 ft 490 kts 89°
2026-05-06 20:09 53.00006 -14.75963 40968 ft 490 kts 89°
2026-05-06 20:09 53.00078 -14.64647 40962 ft 490 kts 89°
2026-05-06 20:10 53.00100 -14.53322 40964 ft 491 kts 89°
2026-05-06 20:10 53.00096 -14.42026 40966 ft 491 kts 90°
2026-05-06 20:11 53.00083 -14.30694 40969 ft 491 kts 90°
2026-05-06 20:11 53.00062 -14.19373 40965 ft 490 kts 90°
2026-05-06 20:12 53.00031 -14.08052 40965 ft 490 kts 90°
2026-05-06 20:12 52.99811 -13.96785 40965 ft 490 kts 96°
2026-05-06 20:13 52.98882 -13.85654 40973 ft 490 kts 98°
2026-05-06 20:13 52.97876 -13.74468 40968 ft 490 kts 98°
2026-05-06 20:14 52.96887 -13.63280 40967 ft 490 kts 98°
2026-05-06 20:14 52.96069 -13.53902 40965 ft 490 kts 97°
2026-05-06 20:15 52.94932 -13.40900 40973 ft 490 kts 98°
2026-05-06 20:15 52.93944 -13.29728 40972 ft 490 kts 98°
2026-05-06 20:16 52.93114 -13.20452 40977 ft 489 kts 98°
2026-05-06 20:16 52.92105 -13.09296 40972 ft 489 kts 98°
2026-05-06 20:17 52.91085 -12.98149 40973 ft 489 kts 98°
2026-05-06 20:17 52.90055 -12.87005 40972 ft 489 kts 98°
2026-05-06 20:18 52.89015 -12.75867 40973 ft 489 kts 98°
2026-05-06 20:18 52.87964 -12.64734 40973 ft 489 kts 98°
2026-05-06 20:19 52.86902 -12.53597 40974 ft 489 kts 98°
2026-05-06 20:19 52.85831 -12.42480 40974 ft 489 kts 98°
2026-05-06 20:20 52.84750 -12.31366 40975 ft 489 kts 98°
2026-05-06 20:20 52.83658 -12.20261 40973 ft 489 kts 98°
2026-05-06 20:21 52.82556 -12.09166 40986 ft 489 kts 98°
2026-05-06 20:21 52.81444 -11.98075 40981 ft 489 kts 98°
2026-05-06 20:22 52.80330 -11.87065 40983 ft 489 kts 99°
2026-05-06 20:22 52.79197 -11.75984 40978 ft 489 kts 99°
2026-05-06 20:23 52.78054 -11.64915 40982 ft 489 kts 99°
2026-05-06 20:23 52.76901 -11.53844 40983 ft 489 kts 99°
2026-05-06 20:24 52.75738 -11.42785 40986 ft 489 kts 99°
2026-05-06 20:24 52.74564 -11.31728 40990 ft 489 kts 99°
2026-05-06 20:25 52.73379 -11.20674 40988 ft 489 kts 99°
2026-05-06 20:25 52.72184 -11.09624 40991 ft 489 kts 99°
2026-05-06 20:26 52.70981 -10.98602 40988 ft 488 kts 99°
2026-05-06 20:26 52.69767 -10.87581 40985 ft 488 kts 99°
2026-05-06 20:27 52.68546 -10.76588 40987 ft 487 kts 99°
2026-05-06 20:27 52.67315 -10.65608 40985 ft 487 kts 99°
2026-05-06 20:28 52.66076 -10.54646 40994 ft 487 kts 99°
2026-05-06 20:28 52.64825 -10.43684 40993 ft 487 kts 100°
2026-05-06 20:29 52.63564 -10.32721 40993 ft 487 kts 100°
2026-05-06 20:29 52.62292 -10.21766 40991 ft 487 kts 100°
2026-05-06 20:30 52.60365 -10.05332 41006 ft 488 kts 100°
2026-05-06 20:31 52.59067 -9.94380 40991 ft 488 kts 100°
2026-05-06 20:31 52.57760 -9.83448 40991 ft 487 kts 100°
2026-05-06 20:32 52.56445 -9.72535 40986 ft 486 kts 100°
2026-05-06 20:32 52.55121 -9.61640 40990 ft 485 kts 100°
2026-05-06 20:33 52.53791 -9.50778 40997 ft 485 kts 101°
2026-05-06 20:33 52.52458 -9.39990 40991 ft 485 kts 101°
2026-05-06 20:34 52.51108 -9.29136 40999 ft 485 kts 101°
2026-05-06 20:34 52.49746 -9.18285 41001 ft 485 kts 101°
2026-05-06 20:35 52.48374 -9.07435 40993 ft 486 kts 101°
2026-05-06 20:35 52.46992 -8.96589 41002 ft 486 kts 101°
2026-05-06 20:36 52.45599 -8.85749 40992 ft 486 kts 101°
2026-05-06 20:36 52.44197 -8.74913 40992 ft 486 kts 101°
2026-05-06 20:37 52.42786 -8.64092 40993 ft 486 kts 101°
2026-05-06 20:37 52.41364 -8.53280 40989 ft 485 kts 101°
2026-05-06 20:38 52.39933 -8.42473 40983 ft 486 kts 101°
2026-05-06 20:38 52.38501 -8.31740 40996 ft 486 kts 102°
2026-05-06 20:39 52.37048 -8.20928 40999 ft 487 kts 102°
2026-05-06 20:39 52.35584 -8.10115 40989 ft 487 kts 102°
2026-05-06 20:40 52.34108 -7.99300 40989 ft 487 kts 102°
2026-05-06 20:40 52.32625 -7.88508 40997 ft 487 kts 102°
2026-05-06 20:41 52.31131 -7.77717 40995 ft 487 kts 102°
2026-05-06 20:41 52.29624 -7.66908 40990 ft 487 kts 102°
2026-05-06 20:42 52.28110 -7.56122 40986 ft 487 kts 102°
2026-05-06 20:42 52.26586 -7.45351 40996 ft 487 kts 102°
2026-05-06 20:43 52.25062 -7.34655 40991 ft 487 kts 102°
2026-05-06 20:43 52.23521 -7.23909 41000 ft 487 kts 103°
2026-05-06 20:44 52.21969 -7.13167 40992 ft 487 kts 103°
2026-05-06 20:44 52.20406 -7.02427 40992 ft 487 kts 103°
2026-05-06 20:45 52.18889 -6.92066 40998 ft 487 kts 103°
2026-05-06 20:45 52.17307 -6.81338 40998 ft 487 kts 103°
2026-05-06 20:46 52.15756 -6.70891 40997 ft 487 kts 103°
2026-05-06 20:46 52.14662 -6.63564 40997 ft 487 kts 103°
2026-05-06 20:47 52.13206 -6.53879 41005 ft 488 kts 103°
2026-05-06 20:47 52.11608 -6.43287 40999 ft 488 kts 103°
2026-05-06 20:48 52.09981 -6.32576 41000 ft 488 kts 103°
2026-05-06 20:48 52.08342 -6.21868 41000 ft 488 kts 103°
2026-05-06 20:49 52.06695 -6.11163 41006 ft 488 kts 103°
2026-05-06 20:49 52.04718 -6.00626 41000 ft 489 kts 113°
2026-05-06 20:50 52.01886 -5.90601 41016 ft 488 kts 115°
2026-05-06 20:50 51.98998 -5.80607 41008 ft 489 kts 115°
2026-05-06 20:51 51.96141 -5.70606 41008 ft 489 kts 114°
2026-05-06 20:51 51.93294 -5.60598 41008 ft 489 kts 114°
2026-05-06 20:52 51.90438 -5.50589 41003 ft 489 kts 115°
2026-05-06 20:52 51.87572 -5.40598 41009 ft 489 kts 115°
2026-05-06 20:53 51.84699 -5.30629 41011 ft 489 kts 115°
2026-05-06 20:53 51.81819 -5.20674 41011 ft 489 kts 115°
2026-05-06 20:54 51.78934 -5.10735 41004 ft 489 kts 115°
2026-05-06 20:54 51.76087 -5.00770 41011 ft 488 kts 113°
2026-05-06 20:55 51.73452 -4.90666 41007 ft 488 kts 112°
2026-05-06 20:55 51.70835 -4.80555 40997 ft 488 kts 113°
2026-05-06 20:56 51.68183 -4.70475 41005 ft 488 kts 113°
2026-05-06 20:56 51.65511 -4.60408 41003 ft 489 kts 113°
2026-05-06 20:57 51.62831 -4.50411 41000 ft 489 kts 113°
2026-05-06 20:57 51.60128 -4.40368 41000 ft 489 kts 113°
2026-05-06 20:58 51.57439 -4.30403 40995 ft 489 kts 114°
2026-05-06 20:58 51.54840 -4.20310 41002 ft 489 kts 108°
2026-05-06 20:59 51.53246 -4.09713 41002 ft 488 kts 99°
2026-05-06 20:59 51.52135 -3.98985 40994 ft 489 kts 99°
2026-05-06 20:59 51.51548 -3.93567 40498 ft 496 kts 100°
2026-05-06 21:00 51.50934 -3.88112 39900 ft 496 kts 100°
2026-05-06 21:00 51.50307 -3.82677 39284 ft 496 kts 100°
2026-05-06 21:00 51.49665 -3.77239 38629 ft 497 kts 100°
2026-05-06 21:00 51.49020 -3.71784 37822 ft 497 kts 100°
2026-05-06 21:01 51.48378 -3.66343 37111 ft 496 kts 100°
2026-05-06 21:01 51.47784 -3.60908 36411 ft 494 kts 97°
2026-05-06 21:01 51.47423 -3.55446 35704 ft 493 kts 95°
2026-05-06 21:01 51.47119 -3.49988 35165 ft 488 kts 94°
2026-05-06 21:02 51.46829 -3.44590 34650 ft 484 kts 94°
2026-05-06 21:02 51.46534 -3.39229 34130 ft 481 kts 95°
2026-05-06 21:02 51.46233 -3.33915 33546 ft 477 kts 95°
2026-05-06 21:02 51.45924 -3.28631 32993 ft 474 kts 95°
2026-05-06 21:03 51.45611 -3.23404 32481 ft 469 kts 95°
2026-05-06 21:03 51.45403 -3.19967 32131 ft 467 kts 95°
2026-05-06 21:03 51.45087 -3.14812 31619 ft 463 kts 95°
2026-05-06 21:03 51.44771 -3.09690 31110 ft 459 kts 96°
2026-05-06 21:04 51.44456 -3.04617 30607 ft 456 kts 96°
2026-05-06 21:04 51.44141 -2.99576 30106 ft 453 kts 96°
2026-05-06 21:04 51.43827 -2.94579 29515 ft 450 kts 96°
2026-05-06 21:04 51.43513 -2.89608 28946 ft 446 kts 96°
2026-05-06 21:05 51.43201 -2.84702 28419 ft 443 kts 96°
2026-05-06 21:05 51.42786 -2.78239 27705 ft 439 kts 96°
2026-05-06 21:05 51.42574 -2.74943 27333 ft 437 kts 96°
2026-05-06 21:05 51.42261 -2.70122 26793 ft 434 kts 96°
2026-05-06 21:06 51.41947 -2.65320 26253 ft 432 kts 96°
2026-05-06 21:06 51.41633 -2.60545 25730 ft 430 kts 96°
2026-05-06 21:06 51.41321 -2.55800 25204 ft 427 kts 96°
2026-05-06 21:06 51.41007 -2.51077 24692 ft 425 kts 96°
2026-05-06 21:07 51.40693 -2.46384 24179 ft 423 kts 96°
2026-05-06 21:07 51.40376 -2.41700 23669 ft 422 kts 96°
2026-05-06 21:07 51.40059 -2.37047 23075 ft 420 kts 96°
2026-05-06 21:07 51.39742 -2.32407 22517 ft 418 kts 96°
2026-05-06 21:08 51.39425 -2.27805 22007 ft 414 kts 96°
2026-05-06 21:08 51.39109 -2.23229 21493 ft 412 kts 96°
2026-05-06 21:08 51.38798 -2.18754 20989 ft 409 kts 96°
2026-05-06 21:08 51.38483 -2.14242 20490 ft 406 kts 96°
2026-05-06 21:09 51.38169 -2.09763 20007 ft 404 kts 96°
2026-05-06 21:09 51.37855 -2.05295 19519 ft 402 kts 96°
2026-05-06 21:09 51.37540 -2.00861 19034 ft 400 kts 96°
2026-05-06 21:09 51.37225 -1.96447 18559 ft 399 kts 96°
2026-05-06 21:10 51.36908 -1.92047 18045 ft 397 kts 96°
2026-05-06 21:10 51.36590 -1.87659 17515 ft 396 kts 96°
2026-05-06 21:10 51.36272 -1.83300 17007 ft 394 kts 96°
2026-05-06 21:10 51.35956 -1.78968 16525 ft 391 kts 96°
2026-05-06 21:11 51.35642 -1.74680 16042 ft 389 kts 96°
2026-05-06 21:11 51.35326 -1.70393 15556 ft 387 kts 96°
2026-05-06 21:11 51.35011 -1.66124 15080 ft 386 kts 96°
2026-05-06 21:11 51.34695 -1.61873 14599 ft 384 kts 96°
2026-05-06 21:12 51.34378 -1.57638 14180 ft 380 kts 96°
2026-05-06 21:12 51.34068 -1.53502 14023 ft 367 kts 96°
2026-05-06 21:12 51.33771 -1.49537 14003 ft 352 kts 96°
2026-05-06 21:12 51.33484 -1.45721 13919 ft 342 kts 96°
2026-05-06 21:13 51.33206 -1.42014 13840 ft 330 kts 96°
2026-05-06 21:13 51.32936 -1.38436 13703 ft 319 kts 96°
2026-05-06 21:13 51.32673 -1.34954 13526 ft 311 kts 96°
2026-05-06 21:13 51.32415 -1.31557 13227 ft 304 kts 96°
2026-05-06 21:14 51.32166 -1.28284 12598 ft 298 kts 96°
2026-05-06 21:14 51.31915 -1.24995 11823 ft 298 kts 96°
2026-05-06 21:14 51.31663 -1.21719 11114 ft 298 kts 96°
2026-05-06 21:14 51.31410 -1.18446 10521 ft 295 kts 96°
2026-05-06 21:15 51.31220 -1.15206 9968 ft 291 kts 91°
2026-05-06 21:15 51.31180 -1.12025 9349 ft 288 kts 89°
2026-05-06 21:15 51.31175 -1.08871 8722 ft 285 kts 89°
2026-05-06 21:15 51.31170 -1.05720 8120 ft 283 kts 89°
2026-05-06 21:16 51.31156 -1.02591 7604 ft 278 kts 89°
2026-05-06 21:16 51.31139 -0.99581 7309 ft 265 kts 88°
2026-05-06 21:16 51.31472 -0.96784 6947 ft 251 kts 61°
2026-05-06 21:16 51.32553 -0.94730 6637 ft 237 kts 34°
2026-05-06 21:17 51.33899 -0.93342 6364 ft 227 kts 31°
2026-05-06 21:17 51.35224 -0.92006 5970 ft 222 kts 31°
2026-05-06 21:17 51.36527 -0.90697 5529 ft 221 kts 31°
2026-05-06 21:17 51.37794 -0.89432 5111 ft 219 kts 31°
2026-05-06 21:18 51.39072 -0.88155 4684 ft 217 kts 31°
2026-05-06 21:18 51.40349 -0.86885 4232 ft 216 kts 31°
2026-05-06 21:18 51.41591 -0.85658 4010 ft 203 kts 30°
2026-05-06 21:18 51.42733 -0.84525 4024 ft 185 kts 31°
2026-05-06 21:19 51.43820 -0.83442 3926 ft 186 kts 31°
2026-05-06 21:19 51.44899 -0.82373 3752 ft 185 kts 31°
2026-05-06 21:19 51.45866 -0.81063 3579 ft 184 kts 56°
2026-05-06 21:19 51.46458 -0.79242 3411 ft 184 kts 61°
2026-05-06 21:20 51.47046 -0.77422 3311 ft 184 kts 60°
2026-05-06 21:20 51.47442 -0.75534 3188 ft 175 kts 81°
2026-05-06 21:20 51.47559 -0.73679 3093 ft 166 kts 82°
2026-05-06 21:20 51.47635 -0.71828 3029 ft 165 kts 85°
2026-05-06 21:21 51.47665 -0.69971 2788 ft 166 kts 86°
2026-05-06 21:21 51.47677 -0.68138 2566 ft 163 kts 87°
2026-05-06 21:21 51.47684 -0.66342 2368 ft 159 kts 87°
2026-05-06 21:21 51.47691 -0.64563 2156 ft 160 kts 87°
2026-05-06 21:22 51.47697 -0.62780 1930 ft 160 kts 86°
2026-05-06 21:22 51.47703 -0.61000 1700 ft 159 kts 86°
2026-05-06 21:22 51.47709 -0.59222 1481 ft 159 kts 88°
2026-05-06 21:22 51.47713 -0.57531 1254 ft 144 kts 88°
2026-05-06 21:23 51.47719 -0.55990 1055 ft 134 kts 86°
2026-05-06 21:23 51.47728 -0.54521 884 ft 130 kts 86°
2026-05-06 21:23 51.47733 -0.53099 695 ft 127 kts 87°
2026-05-06 21:23 51.47738 -0.51653 530 ft 127 kts 87°
2026-05-06 21:24 51.47742 -0.50258 386 ft 128 kts 88°
2026-05-06 21:24 51.47752 -0.48930 199 ft 129 kts 88°
2026-05-06 21:24 51.47750 -0.47514 92 ft 121 kts 87°
2026-05-06 21:24 51.47760 -0.46464 96 ft 59 kts 89°
2026-05-06 21:25 51.47698 -0.46133 94 ft 25 kts 142°
2026-05-06 21:25 51.47571 -0.46084 91 ft 15 kts 178°
2026-05-06 21:25 51.47526 -0.46105 95 ft 11 kts 222°
2026-05-06 21:25 51.47467 -0.46151 91 ft 8 kts 180°
2026-05-06 21:26 51.47420 -0.46184 95 ft 7 kts 232°
2026-05-06 21:26 51.47400 -0.46229 94 ft 1 kts 235°
2026-05-06 21:26 51.47395 -0.46241 95 ft 1 kts 235°
2026-05-06 21:26 51.47394 -0.46244 95 ft 0 kts 235°